User: anonymous   Login
Location: Unspecified
(0.0000°N, 0.0000°E)
Time: 22:46:31
(UTC+00:00)
Language:

S80/T - Orbit

View from above orbital plane
View from above orbital plane
View from above satellite
View from above satellite

Ground track
Ground track

The orbit data is extracted from the following two-line orbital elements,

1 22078U 92052C   17113.85905468 -.00000065 +00000-0 -11004-4 0  9998
2 22078 066.0851 070.9087 0007845 343.4665 016.6097 12.86786749160502
Epoch (UTC): 23 April 2017 20:37:02
Eccentricity: 0.0007845
inclination: 66.0851°
perigee height: 1308 km
apogee height: 1320 km
right ascension of ascending node: 70.9087°
argument of perigee: 343.4665°
revolutions per day: 12.86786749
mean anomaly at epoch: 16.6097°
orbit number at epoch: 16050

The dashed part of the orbit path shows where the satellite is in the earth's shadow,  

DLR